Wind_Speed
20 20 21 22 21 21 21 21 22 21 22 22 24 24 24 24 24 24 23 23 22 21 21 21 21 20 20 20 20 19 19 19 19 19 19 19 20 20 20 20 20 20 20 20
21 21 22 22 22 22 21 22 22 23 23 23 25 26 25 24 24 24 23 23 23 22 22 22 22 22 21 21 21 20 20 20 19 19 20 20 20 20 21 21 21 21 21 21
22 22 23 21 21 22 22 22 23 23 23 23 24 25 26 25 25 24 24 24 24 24 23 22 23 23 22 22 22 21 20 20 20 20 20 21 21 21 21 21 22 22 22 21
23 23 24 21 21 22 22 23 23 24 24 24 25 25 25 25 25 25 24 24 24 25 24 23 23 23 23 23 23 22 21 21 21 21 21 22 21 22 22 22 22 22 22 22
23 24 25 22 22 23 23 24 24 24 25 24 25 25 25 25 25 24 23 24 24 24 25 24 24 24 23 23 23 22 22 22 23 23 23 22 22 22 22 22 22 23 23 22
25 25 25 24 23 24 24 24 24 24 25 25 26 26 25 25 25 24 24 24 24 25 25 25 24 24 24 23 23 23 23 23 23 23 23 23 23 24 24 23 23 22 22 22
26 27 27 25 25 25 25 25 25 25 25 26 26 26 26 26 26 25 25 25 25 24 25 25 24 24 24 24 24 24 24 24 24 24 24 24 24 24 24 24 24 23 23 23
26 27 27 26 26 26 27 27 26 26 25 25 26 26 26 26 26 26 25 25 25 24 24 24 23 24 24 24 24 24 24 24 24 24 24 24 25 25 25 24 24 24 25 25
28 28 28 28 28 27 27 27 27 27 27 27 27 27 27 27 27 27 26 26 26 25 25 23 22 23 23 24 24 24 23 24 24 25 25 25 25 25 24 25 25 25 26 26
29 29 28 27 28 27 27 28 28 28 28 29 29 29 28 29 29 28 27 27 26 25 24 23 23 23 23 24 24 23 23 23 24 24 25 25 25 25 25 26 26 26 26 26
28 29 29 28 28 28 28 29 29 29 29 29 29 29 29 29 29 29 28 27 26 26 25 24 23 23 23 24 24 24 24 24 25 25 26 25 25 25 25 26 26 26 26 26
28 29 31 30 30 28 29 30 30 29 29 29 29 29 29 29 29 28 28 27 27 27 26 25 24 24 24 24 25 25 25 26 26 26 26 25 25 24 25 25 25 25 26 26
29 30 30 30 30 29 29 30 31 30 29 29 29 29 28 29 29 28 26 27 27 27 26 26 26 25 25 25 26 26 26 26 26 26 26 26 26 26 27 27 27 27 27 27
30 30 30 29 30 29 29 29 30 30 30 30 30 30 29 29 29 28 27 27 27 27 26 27 27 27 26 26 27 27 26 26 26 26 27 27 28 28 28 28 28 28 28 28
30 31 31 31 31 31 30 31 31 31 31 31 31 31 30 30 29 29 28 28 28 28 28 28 28 28 28 27 28 27 26 26 26 27 27 28 28 29 28 28 28 28 28 29
30 30 31 31 31 31 31 31 32 32 32 32 32 31 31 30 30 29 29 29 29 29 29 29 28 28 28 28 27 27 27 28 28 28 28 28 28 29 28 28 28 28 29 29
31 31 31 31 31 31 31 31 32 32 32 31 31 31 31 31 31 30 30 30 30 30 29 28 28 27 27 27 28 28 28 29 29 29 29 29 28 28 28 28 29 28 29 29
31 31 31 31 31 31 31 31 31 32 32 32 32 31 31 31 31 30 30 30 29 29 29 28 28 27 28 28 28 28 28 29 30 30 30 30 29 28 28 28 28 29 28 29
31 31 30 30 30 31 30 30 31 31 32 32 31 31 30 30 30 29 29 29 29 28 29 29 28 28 28 28 28 28 28 29 29 30 30 29 29 29 29 29 29 29 29 29
29 29 30 30 30 30 30 31 31 31 31 31 31 31 31 30 30 30 29 28 28 28 28 28 28 28 28 28 28 28 28 29 29 30 30 29 29 29 29 29 29 29 29 29
29 29 29 29 30 30 30 31 31 30 30 30 31 31 31 30 29 29 29 29 28 28 28 28 28 28 28 28 28 28 28 28 29 29 29 29 29 29 30 30 30 30 29 29
28 28 28 29 29 30 30 30 30 30 30 30 30 30 30 29 28 28 29 28 28 28 28 28 28 28 28 28 28 28 28 28 28 29 29 29 29 29 29 29 30 29 29 29
28 28 28 29 30 30 31 31 31 30 30 29 29 29 29 29 29 28 28 28 28 28 28 27 28 28 28 27 27 27 27 27 27 27 28 29 29 29 29 29 30 30 30 30
29 29 29 30 30 30 30 30 30 30 30 30 30 29 29 29 29 29 29 28 29 28 28 27 27 27 27 27 27 27 27 27 27 27 27 28 28 28 29 30 30 30 30 30
31 30 30 31 31 31 31 31 31 31 31 31 30 30 30 30 29 29 29 28 28 28 27 27 27 27 28 28 28 28 27 27 28 28 28 28 29 29 29 29 29 29 29 30
31 31 31 31 32 32 32 32 32 32 32 31 31 31 31 31 30 30 29 29 28 28 28 28 28 28 28 28 28 28 28 29 29 29 29 29 29 29 28 28 28 28 29 29
32 32 31 31 32 32 32 33 33 33 33 32 32 31 31 31 31 30 30 30 30 29 29 29 29 29 29 29 29 29 30 30 30 30 30 30 30 29 28 28 28 28 28 29
Wind_Direction
263 267 269 273 277 278 279 280 283 283 281 285 287 290 292 291 289 286 285 284 283 280 278 277 278 279 278 276 277 277 276 276 276 273 272 274 276 277 279 277 276 278 277 279
264 267 269 271 276 278 278 280 282 283 282 284 287 289 291 291 288 286 283 283 281 279 277 277 277 278 279 278 276 277 274 272 273 274 275 276 277 277 277 277 278 279 279 279
268 269 271 274 277 278 278 279 281 282 284 286 287 289 289 290 289 286 283 281 279 278 276 276 276 275 275 276 274 274 272 270 271 274 276 276 277 278 278 277 277 278 279 278
270 271 273 278 278 278 280 280 282 282 284 287 289 291 290 290 290 288 285 281 279 278 278 276 276 276 275 274 273 270 269 270 272 273 274 276 277 278 278 278 277 278 279 279
270 272 275 277 277 279 280 281 284 284 286 287 289 290 290 290 290 291 288 283 280 278 278 276 275 274 273 273 272 270 270 271 272 273 274 275 275 277 278 277 278 278 279 279
270 272 273 277 279 280 281 282 284 285 286 287 289 291 291 291 291 290 289 286 282 280 280 276 274 273 272 271 271 271 271 271 272 274 274 274 275 276 278 277 277 278 279 280
269 271 274 276 278 280 282 285 286 286 286 287 289 291 292 292 293 292 291 288 284 283 282 278 274 272 271 272 271 271 272 272 273 275 275 274 274 274 276 276 277 277 277 279
270 272 273 274 276 277 280 282 284 285 285 287 288 289 291 292 292 291 290 288 285 282 281 279 275 272 271 271 271 271 272 272 272 275 276 276 275 275 275 276 277 278 278 278
269 272 273 274 276 278 279 280 283 284 284 286 287 289 290 291 291 290 289 288 285 282 282 280 275 273 272 273 272 271 272 272 273 275 276 276 276 275 275 276 277 278 278 279
269 272 273 274 275 276 278 280 283 285 285 284 286 288 289 289 290 289 287 287 284 283 281 279 276 274 272 272 272 273 273 274 276 277 278 278 277 275 275 275 277 278 278 278
270 272 273 274 276 275 276 279 282 285 286 286 285 287 288 288 288 287 285 284 283 281 278 278 278 275 273 272 271 272 274 276 277 279 279 278 278 277 276 276 277 278 278 279
272 273 273 274 275 276 276 278 281 284 284 285 286 287 289 289 288 287 284 282 281 279 278 277 276 276 274 273 273 273 275 277 278 279 278 277 277 277 277 278 278 277 277 278
273 274 275 276 276 276 277 278 280 282 283 285 286 287 288 288 287 287 284 281 280 278 277 276 276 276 274 273 274 275 275 276 276 278 277 276 276 275 275 276 276 276 277 277
271 272 275 276 277 277 278 278 279 281 281 282 284 285 287 286 285 284 283 280 279 278 277 277 276 275 274 274 274 274 274 274 275 276 277 277 277 276 275 274 275 275 276 276
270 270 274 276 277 278 278 278 280 282 282 280 282 283 284 284 282 282 281 280 279 279 278 278 277 275 273 273 273 272 273 275 276 276 277 278 278 277 275 274 274 275 276 277
271 271 273 275 277 278 278 278 279 281 282 282 282 282 282 282 281 280 280 279 279 278 278 278 276 274 272 272 271 272 273 275 275 276 277 278 279 278 276 275 274 275 276 277
272 273 273 274 276 277 278 279 279 280 281 282 282 282 282 281 280 280 280 279 279 278 277 277 277 275 273 273 274 273 273 274 275 275 276 278 278 278 277 275 275 275 276 276
273 275 274 274 275 278 279 279 279 280 282 282 282 281 282 282 280 279 279 279 280 278 276 276 277 276 274 273 275 276 276 276 275 276 276 276 276 276 276 276 276 276 276 275
274 275 275 274 275 277 278 279 280 281 282 282 281 281 282 283 282 280 279 278 277 277 275 275 276 276 276 276 275 275 276 276 277 278 277 275 275 275 276 276 276 276 276 276
274 275 276 276 276 277 278 279 280 281 281 282 282 281 281 281 282 281 280 278 278 278 277 275 275 275 275 275 276 277 278 278 279 279 278 276 276 277 278 278 278 278 277 277
275 276 277 277 276 277 278 279 280 281 282 281 281 282 282 281 281 281 280 278 277 277 277 276 276 277 276 276 277 278 279 278 278 279 278 276 276 277 279 280 280 279 277 276
274 275 276 276 277 278 279 280 280 281 281 281 281 282 281 280 281 282 280 278 277 277 277 276 276 277 277 276 277 278 278 278 278 278 278 277 278 280 280 279 280 279 278 277
274 275 276 277 278 278 278 279 279 280 281 281 281 282 281 281 282 282 281 278 277 276 277 276 277 277 276 277 278 278 279 280 280 280 279 278 280 281 281 280 280 279 279 278
274 274 274 275 277 277 278 278 279 280 280 281 281 281 280 280 282 281 281 280 277 276 276 276 277 277 278 278 278 278 280 281 281 282 282 281 282 283 282 280 279 280 280 281
273 273 274 275 276 278 278 278 278 279 279 280 280 280 280 279 280 280 280 279 277 275 274 274 275 277 278 278 278 279 280 281 281 280 282 283 283 283 283 282 281 279 279 280
272 272 273 274 276 278 278 278 277 278 278 278 278 278 279 278 278 278 279 278 276 275 275 275 276 277 278 278 278 279 280 282 282 282 282 282 282 283 282 281 281 281 280 280
271 272 273 274 275 277 277 277 277 278 277 277 277 277 277 277 277 276 276 275 275 276 276 275 276 277 279 280 280 280 280 281 283 283 282 282 281 280 279 279 280 281 281 281
Height
5824 5824 5824 5824 5824 5823 5823 5822 5821 5821 5819 5817 5815 5813 5811 5809 5806 5805 5804 5802 5801 5799 5799 5799 5799 5798 5798 5798 5799 5799 5799 5799 5799 5799 5800 5800 5800 5800 5800 5800 5800 5800 5800 5800
5819 5819 5819 5819 5819 5818 5818 5817 5816 5814 5813 5812 5809 5807 5805 5803 5801 5799 5798 5797 5795 5794 5793 5793 5793 5793 5793 5793 5793 5793 5793 5794 5794 5794 5794 5795 5795 5795 5795 5795 5795 5795 5795 5795
5813 5813 5812 5813 5814 5813 5812 5811 5810 5808 5808 5805 5803 5801 5799 5797 5795 5793 5792 5791 5789 5788 5787 5787 5787 5787 5787 5787 5787 5787 5788 5788 5788 5788 5789 5789 5789 5789 5788 5789 5789 5789 5789 5788
5807 5807 5807 5810 5808 5807 5806 5805 5804 5802 5801 5799 5797 5795 5792 5791 5789 5787 5785 5784 5783 5782 5781 5781 5781 5781 5780 5781 5781 5781 5782 5782 5782 5782 5783 5783 5783 5783 5783 5783 5783 5783 5783 5783
5801 5800 5800 5802 5801 5800 5799 5799 5797 5796 5794 5793 5791 5788 5787 5784 5782 5780 5779 5777 5776 5775 5775 5774 5774 5774 5774 5774 5774 5775 5775 5776 5776 5776 5776 5776 5777 5777 5777 5777 5777 5776 5776 5776
5794 5794 5794 5796 5795 5793 5794 5792 5791 5789 5787 5786 5784 5782 5781 5778 5776 5774 5772 5770 5769 5768 5767 5767 5766 5766 5767 5767 5768 5768 5769 5769 5769 5769 5769 5770 5770 5770 5770 5770 5770 5770 5770 5770
5787 5786 5786 5788 5787 5787 5787 5786 5784 5782 5781 5779 5777 5775 5773 5771 5769 5767 5765 5764 5762 5761 5760 5759 5759 5759 5759 5760 5761 5761 5762 5762 5762 5762 5763 5763 5763 5763 5763 5763 5763 5763 5763 5763
5780 5780 5782 5780 5780 5779 5779 5778 5776 5775 5774 5772 5771 5768 5767 5765 5762 5761 5759 5757 5755 5754 5752 5752 5751 5752 5752 5753 5753 5754 5754 5755 5755 5755 5755 5755 5756 5756 5756 5756 5756 5756 5756 5756
5774 5775 5774 5773 5772 5772 5771 5770 5769 5768 5767 5766 5764 5762 5760 5758 5756 5754 5752 5750 5748 5747 5745 5744 5744 5745 5745 5746 5746 5747 5747 5748 5748 5748 5748 5748 5748 5748 5748 5748 5748 5748 5748 5748
5766 5766 5765 5765 5765 5764 5763 5763 5762 5760 5759 5758 5756 5755 5753 5751 5749 5747 5745 5743 5742 5740 5739 5738 5738 5738 5738 5739 5739 5740 5740 5741 5741 5741 5741 5741 5740 5740 5740 5740 5740 5740 5740 5739
5758 5758 5757 5758 5757 5757 5756 5755 5754 5753 5751 5750 5749 5747 5745 5743 5742 5740 5738 5736 5735 5733 5732 5732 5731 5731 5731 5732 5732 5732 5733 5733 5733 5733 5733 5733 5732 5732 5732 5732 5732 5732 5731 5730
5751 5751 5749 5750 5749 5748 5747 5747 5746 5745 5743 5742 5741 5739 5737 5735 5734 5732 5730 5729 5728 5726 5726 5725 5724 5724 5725 5725 5724 5725 5725 5725 5725 5725 5725 5724 5724 5724 5724 5724 5723 5723 5722 5722
5742 5742 5741 5741 5741 5740 5739 5738 5737 5736 5735 5734 5732 5731 5729 5727 5726 5724 5723 5721 5720 5719 5718 5718 5718 5717 5717 5717 5717 5717 5717 5717 5717 5717 5716 5716 5716 5716 5715 5715 5715 5714 5714 5713
5734 5733 5733 5733 5732 5732 5731 5730 5729 5728 5727 5725 5724 5723 5721 5719 5718 5716 5715 5714 5712 5711 5711 5710 5710 5710 5710 5709 5709 5709 5709 5709 5708 5708 5708 5707 5707 5706 5706 5706 5706 5706 5705 5704
5725 5725 5724 5724 5723 5722 5722 5721 5720 5719 5718 5716 5715 5714 5712 5711 5709 5708 5707 5706 5705 5704 5703 5702 5702 5702 5701 5701 5701 5700 5700 5700 5700 5700 5699 5698 5698 5697 5697 5696 5696 5696 5696 5696
5716 5716 5715 5715 5714 5713 5713 5712 5711 5710 5709 5707 5706 5705 5703 5702 5701 5699 5698 5697 5697 5696 5695 5694 5694 5693 5692 5692 5692 5692 5692 5692 5691 5691 5690 5689 5688 5688 5687 5687 5687 5687 5687 5686
5707 5707 5707 5706 5705 5704 5704 5703 5702 5701 5699 5698 5697 5696 5694 5693 5692 5691 5690 5688 5687 5687 5686 5686 5685 5684 5684 5684 5684 5683 5683 5683 5682 5682 5681 5680 5679 5679 5678 5678 5678 5678 5678 5677
5698 5698 5698 5697 5697 5696 5695 5694 5692 5691 5690 5689 5687 5686 5685 5684 5682 5681 5680 5680 5679 5678 5677 5677 5677 5676 5675 5675 5675 5674 5674 5674 5673 5672 5671 5671 5670 5670 5669 5669 5669 5669 5668 5668
5689 5689 5689 5688 5687 5687 5686 5685 5683 5682 5681 5680 5678 5677 5676 5675 5673 5672 5671 5670 5670 5669 5669 5668 5668 5667 5667 5666 5666 5665 5665 5664 5663 5663 5662 5661 5661 5660 5660 5660 5660 5659 5659 5658
5680 5680 5680 5679 5678 5677 5677 5676 5675 5673 5672 5670 5669 5668 5667 5666 5664 5663 5662 5661 5661 5660 5659 5659 5659 5658 5658 5657 5657 5656 5656 5655 5654 5653 5653 5652 5652 5651 5651 5650 5650 5649 5648 5648
5671 5671 5671 5670 5669 5669 5668 5667 5665 5664 5663 5662 5660 5659 5658 5657 5655 5654 5653 5653 5652 5651 5651 5650 5650 5649 5649 5649 5648 5647 5647 5646 5645 5644 5644 5643 5643 5642 5642 5641 5640 5639 5638 5638
5662 5662 5662 5661 5660 5659 5659 5657 5656 5655 5654 5653 5652 5650 5649 5648 5646 5645 5644 5644 5643 5642 5642 5642 5641 5640 5640 5639 5639 5638 5638 5637 5636 5635 5634 5634 5633 5633 5632 5631 5630 5629 5629 5628
5653 5653 5653 5652 5651 5650 5649 5648 5647 5646 5645 5644 5643 5641 5640 5639 5638 5637 5636 5635 5634 5634 5633 5633 5632 5631 5631 5630 5630 5630 5629 5628 5627 5626 5625 5625 5624 5623 5622 5621 5620 5619 5619 5618
5644 5644 5643 5643 5642 5641 5640 5639 5638 5637 5636 5635 5634 5633 5631 5630 5629 5628 5627 5626 5625 5624 5624 5623 5623 5622 5622 5622 5621 5621 5620 5619 5618 5618 5616 5615 5614 5613 5612 5611 5610 5610 5609 5608
5634 5634 5633 5633 5632 5631 5630 5629 5628 5628 5627 5626 5624 5623 5622 5621 5620 5619 5618 5617 5616 5615 5615 5615 5614 5614 5613 5613 5613 5612 5611 5610 5609 5609 5607 5606 5605 5604 5603 5601 5600 5599 5599 5598
5623 5623 5623 5623 5622 5621 5620 5619 5618 5618 5617 5616 5615 5614 5613 5612 5611 5610 5609 5608 5607 5607 5606 5606 5605 5605 5604 5604 5603 5603 5602 5601 5600 5599 5598 5597 5596 5595 5594 5592 5591 5590 5589 5588
5613 5613 5613 5612 5612 5611 5610 5609 5608 5607 5606 5605 5605 5604 5603 5602 5601 5600 5600 5599 5599 5598 5597 5597 5596 5596 5595 5594 5594 5593 5592 5592 5591 5590 5589 5587 5586 5585 5584 5583 5582 5581 5580 5579